Lid_Strength_Index
-1 -0 1 3 10 10 13 12 8 10 9 6 6 7 8 7 9 12 2 1 0 0 -0 -1 -1 -1 -1 -1 -2 -1 -2 -2 -2 -2 -2 -2 -2 -2 -2 -2 -1 -2 -1 -1 -1 -1 -1 -1 -1
-0 1 2 6 12 14 13 9 10 8 7 5 6 6 8 9 5 4 3 0 -0 -0 -0 -0 -1 -1 -2 -1 -2 -2 -2 -2 -2 -2 -2 -2 -2 -2 -2 -2 -1 -1 -1 -1 -1 -1 -1 -1 -1
0 1 7 10 12 13 13 9 8 7 6 6 7 5 6 7 4 3 1 0 -0 -0 -0 -1 -1 -1 -2 -2 -2 -2 -2 -2 -2 -2 -2 -2 -2 -2 -1 -1 -2 -1 -1 -1 -1 -1 -1 -1 -1
2 4 6 10 11 9 10 9 7 7 6 5 6 8 5 3 3 2 0 -0 0 -0 -0 -1 -1 -1 -2 -2 -2 -2 -2 -2 -2 -2 -2 -2 -2 -2 -1 -2 -1 -1 -1 -1 -1 -1 -1 -1 -1
3 6 11 11 10 8 8 7 7 8 7 7 6 9 7 3 1 1 1 0 1 0 -0 -1 -2 -2 -2 -1 -2 -2 -2 -2 -2 -2 -2 -2 -2 -2 -2 -1 -1 -1 -1 -1 -1 -1 -1 -1 -1
6 6 12 14 11 9 7 6 6 8 7 7 7 8 7 2 2 1 0 0 -0 0 -0 -0 -1 -2 -2 -2 -1 -2 -2 -2 -2 -2 -1 -1 -2 -1 -1 -1 -1 -1 -1 -1 -1 -1 -1 -1 -1
7 10 12 11 11 10 8 6 7 8 8 7 5 9 6 4 2 1 1 0 0 -0 -0 -0 -0 -1 -2 -2 -2 -1 -2 -2 -2 -1 -2 -1 -1 -1 -1 -1 -1 -1 -1 -1 -1 -1 -1 -1 -1
6 7 10 11 11 10 7 6 5 7 7 4 4 9 8 4 1 1 1 1 0 0 0 -0 -0 -0 -0 -0 -2 -2 -2 -2 -1 -1 -1 -1 -1 -1 -1 -1 -1 -1 -1 -1 -1 -1 -1 -1 -1
4 11 12 11 10 9 6 7 5 4 6 5 4 5 4 2 1 2 2 2 1 1 0 0 0 0 -0 -0 -1 -1 -2 -2 -2 -1 -1 -1 -0 -0 -0 -1 -1 -1 -1 -1 -1 -1 -1 -1 -1
7 10 10 7 7 8 6 6 6 7 7 7 6 4 3 2 3 3 3 3 2 2 1 0 0 0 0 -1 1 1 -0 -0 -0 -0 0 -0 0 -0 -1 -1 -1 -2 -1 -1 -1 -1 -1 -1 -0
6 9 7 6 6 6 7 7 5 7 9 7 7 5 4 3 3 3 3 3 3 2 1 0 0 0 0 0 0 0 0 0 0 0 -0 0 0 0 0 0 0 -0 -1 -0 -1 -0 -0 -0 0
8 6 6 6 6 6 7 6 7 6 7 4 4 4 4 4 4 4 3 3 2 2 1 1 0 0 0 -0 -0 -0 0 0 0 0 -0 0 1 1 0 0 0 0 0 0 0 0 -0 0 0
7 6 5 5 5 6 5 7 7 7 5 4 3 4 4 4 4 3 2 2 2 2 1 1 0 0 0 0 0 0 0 -0 -0 0 -0 0 1 0 0 1 0 0 0 1 1 1 1 0 -0
6 6 6 6 6 6 7 7 7 6 4 4 4 4 4 4 3 3 3 3 2 2 1 1 1 0 1 1 1 1 1 0 0 0 0 0 0 1 0 0 1 0 0 0 0 1 0 0 0
5 8 7 7 6 7 6 9 8 5 5 5 5 5 4 4 3 3 3 3 2 2 1 1 1 0 1 1 0 0 0 0 0 0 0 0 0 0 1 1 2 0 0 0 0 0 0 0 0
8 9 11 8 7 6 7 12 7 5 6 6 5 5 4 4 3 3 2 2 2 2 1 1 0 0 1 0 0 0 0 0 0 0 0 0 -0 0 1 2 1 0 1 0 1 1 2 1 1
11 12 11 10 7 7 9 11 7 5 6 6 6 5 5 4 4 3 2 2 2 2 2 2 1 1 0 0 0 0 0 0 0 0 1 0 0 0 1 1 1 1 1 1 1 2 2 2 2
13 11 10 10 8 8 10 10 7 6 6 6 6 5 5 5 4 3 2 2 2 1 1 2 2 1 1 1 1 1 1 1 1 1 1 0 1 0 0 0 1 1 1 1 1 1 2 2 2
10 10 10 8 8 9 10 10 8 7 6 7 6 6 6 5 3 3 2 2 2 1 1 1 1 1 1 2 2 2 2 2 1 1 0 0 0 0 0 0 0 1 1 1 1 2 2 3 2
11 10 10 9 7 9 10 10 8 7 7 7 6 6 6 5 4 3 3 2 2 2 2 2 1 1 1 1 2 2 2 1 1 1 1 1 0 0 0 0 1 1 1 2 2 2 2 2 2
12 10 10 10 8 8 10 12 10 8 7 6 6 5 5 5 5 4 4 3 2 2 2 2 1 1 1 1 1 2 2 2 3 2 2 2 2 1 0 1 1 1 2 2 2 2 3 3 2
14 9 8 9 10 14 9 17 12 9 8 7 7 6 5 5 4 4 4 3 3 2 2 1 1 1 1 2 2 3 3 5 3 3 3 2 0 0 0 1 1 1 1 2 2 1 2 2 3
11 8 9 9 10 12 12 15 12 10 11 9 7 6 5 5 5 4 4 3 2 2 2 1 1 1 1 2 2 5 5 3 3 3 2 2 2 1 0 0 1 2 1 2 1 2 2 2 3
8 10 11 12 14 16 12 13 14 12 10 8 7 6 5 5 5 4 3 3 3 2 2 2 2 2 4 5 6 6 2 3 3 3 3 3 3 1 1 1 1 0 1 1 2 2 2 2 2
10 13 16 16 17 17 15 13 11 9 7 7 7 6 5 5 5 4 4 4 3 3 2 2 2 3 5 6 5 2 2 3 3 3 2 3 2 2 2 1 1 1 1 1 1 2 2 2 2
12 12 15 17 16 15 12 14 11 8 6 6 5 5 5 5 4 4 4 3 3 3 2 2 3 3 5 5 5 2 2 3 2 2 2 3 3 2 1 1 1 1 1 1 1 2 2 2 2
11 13 11 13 14 15 14 11 9 7 7 6 6 6 6 5 5 4 4 3 3 3 3 2 3 4 4 4 2 2 2 1 2 2 3 3 2 2 1 1 1 1 1 1 1 2 1 2 2
9 9 13 14 17 18 15 14 13 11 9 8 7 7 6 5 5 4 4 3 3 3 2 2 2 3 4 3 2 2 2 1 2 2 2 1 2 2 2 1 1 1 1 1 1 2 2 2 2
11 12 13 13 14 16 17 15 10 9 8 8 7 6 6 5 5 4 4 3 3 2 2 2 2 3 4 2 2 2 2 2 2 2 2 1 1 1 1 2 2 2 2 1 2 2 2 2 2
10 11 12 14 15 15 15 14 8 8 8 7 6 6 6 6 4 4 3 3 3 3 3 3 2 3 3 2 2 1 2 2 2 2 2 2 2 2 1 1 1 1 1 1 2 2 2 2 2